Weather Roundup
Issued by NWS Springfield, MO

Home | Current Version | Previous Version | Text Only | Print | Product List | Glossary On
Versions: 1 2 3 4 5 6 7 8 9 10 11 12 13 14 15 16 17 18 19 20 21 22 23 24 25 26 27 28 29 30 31 32 33 34 35 36 37 38 39 40 41 42 43 44 45 46 47 48 49 50
000
NZUS99 KSGF 181207
HRRSGF

HOURLY WEATHER
NATIONAL WEATHER SERVICE SPRINGFIELD MO
700 AM CDT FRI APR 18 2014

......SGF CWA......

CITY           SKY/WX    TMP DP  RH WIND       PRES   REMARKS
SPRINGFIELD    CLOUDY    45  39  79 NE3       30.26R
6HR MIN TEMP:  41; 6HR MAX TEMP:  50;

JOPLIN         CLEAR     38  38 100 CALM      30.28R FOG
6HR MIN TEMP:  37; 6HR MAX TEMP:  45;

WEST PLAINS    PTCLDY    45  39  79 CALM      30.26R
6HR MIN TEMP:  45; 6HR MAX TEMP:  53;

ROLLA          MOCLDY    41  38  89 NE6       30.27R
6HR MIN TEMP:  39; 6HR MAX TEMP:  45;

OSAGE BEACH    CLEAR     39  36  87 NE3       30.31R
BRANSON        PTCLDY    43  39  87 CALM      30.25S

......SURROUNDING SGF CWA......

CITY           SKY/WX    TMP DP  RH WIND       PRES   REMARKS
CHANUTE        CLEAR     34  32  92 E3        30.29R FOG
PARSONS        CLEAR     38  35  89 NE3       30.29R FOG
COFFEYVILLE    CLEAR     34  33  96 N5        30.29R FOG     WCI  30
EMPORIA        FOG       29  28  96 S5        30.28R VSB 1   WCI  24
GROVE OK       CLEAR     45  43  93 CALM      30.28R
ROGERS AR      CLEAR     44  39  82 NE5       30.26R
SILOAM SPRINGS CLEAR     45  36  70 E3        30.26R
HARRISON AR    MOCLDY    47  41  80 CALM      30.25R
NEAR YELLVILLE CLOUDY    48  37  66 N5        30.25R

......KANSAS AND MISSOURI......

CITY           SKY/WX    TMP DP  RH WIND       PRES   REMARKS
KANSAS CTY INT PTCLDY    36  32  85 SE3       30.30R FOG
DOWNTOWN KC    CLEAR     38  34  85 CALM      30.31R FOG
COLUMBIA       CLEAR     40  38  93 NE7       30.30R FOG
SEDALIA        CLEAR     39  37  92 NE3       30.30R FOG
ST JOSEPH      CLEAR     30  27  88 CALM      30.32R FOG
ST LOUIS       PTCLDY    48  38  68 NE5       30.30S
SPIRIT OF STL  CLEAR     40  37  89 CALM      30.30R
KIRKSVILLE     CLEAR     32  29  88 NE6       30.32R WCI  26
WICHITA        FAIR      32  29  88 CALM      30.27R FOG
TOPEKA         FOG       31  29  92 E3        30.31R VSB 1/2
OLATHE         CLEAR     35  33  92 CALM      30.29R

......TENNESSEE......

CITY           SKY/WX    TMP DP  RH WIND       PRES   REMARKS
MEMPHIS        CLOUDY    58  45  62 CALM      30.23R
NASHVILLE      CLOUDY    55  44  66 CALM      30.30R

......ARKANSAS.......

CITY           SKY/WX    TMP DP  RH WIND       PRES   REMARKS
FAYETTEVILLE   CLEAR     41  41 100 CALM      30.25R FOG
FT SMITH       MOCLDY    52  45  77 SW3       30.23R
LITTLE ROCK    CLOUDY    54  51  90 CALM      30.23R

......OKLAHOMA.......

CITY           SKY/WX    TMP DP  RH WIND       PRES   REMARKS
TULSA          CLEAR     36  35  96 NW5       30.27R FOG     WCI  32
PONCA CITY     CLEAR     30  28  93 CALM      30.28R FOG
MCALESTER      MOCLDY    40  37  89 CALM      30.25R FOG
OKLAHOMA CITY  PTCLDY    43  38  82 N8        30.25R HAZE

......IOWA............

CITY           SKY/WX    TMP DP  RH WIND       PRES   REMARKS
DES MOINES     PTCLDY    34  29  82 E5        30.33R HAZE    WCI  30
QUAD CITIES    CLEAR     31  28  89 CALM      30.34R FOG

......ILLINOIS........

CITY           SKY/WX    TMP DP  RH WIND       PRES   REMARKS
QUINCY         CLEAR     36  32  85 NE6       30.32R WCI  31
CHICAGO        PTCLDY    41  33  73 N5        30.30R




USA.gov is the U.S. government's official web portal to all federal, state and local government web resources and services.